Погода в Эсмеральдасе

Эквадор     0°57′06″N   79°39′04″W
темп.,
°C
ветер,
м/с
пор.,
м/с
влажн.,
%
обл.,
%
осадки,
мм/ч
давл.,
гПа
погр.,
м
15 мая, сб
сб1501:00+24юз568996 2.1 1011459
04:00+24ююз4692100 2.9 1010471
07:00+24ююз5789100 4.8 1011514
10:00+26ююз568398 0.0 1012577
13:00+27зюз778160 0.1 1009624
16:00+26зюз768378 0.3 1008466
19:00+25зюз668673 0.4 1010493
22:00+25юз348595 0.1 1012455
16 мая, вс
вс1601:00+25юз3487100 0.5 1011357
04:00+25юз558899 0.3 1010387
07:00+25ююз568895 0.3 1011478
10:00+26юз458332 0.0 1013588
13:00+26з668286 0.1 1011538
16:00+26з558279 0.2 1010580
19:00+25зюз568383 0.3 1011522
22:00+24ю2288100 1.6 1013256
17 мая, пн
пн1701:00+24ю2292100 4.1 1012205
04:00+24ююз3490100 1.2 1010248
07:00+24ююз4488100 1.2 1011269
10:00+26зюз338256 0.0 1013488
13:00+26з558283 0.2 1011535
16:00+26з6682100 0.3 1009602
19:00+25юз568396 0.3 1012500
22:00+25юз5784100 0.0 1014494
18 мая, вт
вт1801:00+24ююз5686100 0.0 1013475
04:00+24юз578799 0.0 1012450
07:00+24ююз5786100 0.0 1013508
10:00+25юз5582100 0.0 1014603
13:00+26зюз6681100 0.1 1012562
16:00+25зюз668288 0.1 1010534
19:00+25зюз5483100 0.1 1012465
22:00+25зюз3383100 0.1 1014323
19 мая, ср
ср1901:00+24ююз3386100 0.5 1012298
04:00+24ююв3390100 0.3 1010222
07:00+24з3390100 0.6 1011293
10:00+25ююз448698 0.1 1012400
13:00+26з5482100 0.2 1010604
16:00+26з6683100 0.1 1008563
19:00+25зюз558492 0.1 1010509
22:00+25юз448630 0.0 1012353